Waarnemingen

Advertentie
Mijn weer
Gilze-Rijen, Nederland (6350): temperatuur & dauwpunt: 22.06.2017 05:00:00 - 28.06.2017 05:00:00 (CEST)Gilze-Rijen, Nederland (6350): temperatuur 5cm: 22.06.2017 05:00:00 - 28.06.2017 05:00:00 (CEST)Gilze-Rijen, Nederland (6350): windsnelheid & windstoten: 22.06.2017 05:00:00 - 28.06.2017 05:00:00 (CEST)Gilze-Rijen, Nederland (6350): windrichting: 22.06.2017 05:00:00 - 28.06.2017 05:00:00 (CEST)Gilze-Rijen, Nederland (6350): luchtdruk: 22.06.2017 05:00:00 - 28.06.2017 05:00:00 (CEST)Gilze-Rijen, Nederland (6350): zicht: 22.06.2017 05:00:00 - 28.06.2017 05:00:00 (CEST)Gilze-Rijen, Nederland (6350): neerslag: 22.06.2017 05:00:00 - 28.06.2017 05:00:00 (CEST)
Datum & Tijd tt [°C] td [°C] tt 5cm [°C] ff [km/u] ff [kn] fx [km/u] fx [kn] dd ppp [hPa] vv [km] rr [mm]
28.06.2017 05:00:00 17,6 15,9 17,2 11 6 18 10 OZO 997,3 7 0,0
28.06.2017 04:00:00 17,2 15,6 16,6 13 7 18 10 O 997,9 7 0,0
28.06.2017 03:00:00 17,4 15,5 16,9 13 7 22 12 O 998,5 9 0,0
28.06.2017 02:00:00 17,8 15,5 17,4 13 7 22 12 O 999,5 10 0,0
28.06.2017 01:00:00 17,9 15,3 17,5 15 8 22 12 ONO 1000,7 10 0,0
28.06.2017 00:00:00 17,9 14,9 17,3 11 6 22 12 ONO 1001,3 10 0,0
27.06.2017 23:00:00 18,0 14,6 17,4 13 7 22 12 ONO 1002,1 10 0,1
27.06.2017 22:00:00 18,8 13,7 18,5 15 8 25 14 ONO 1002,7 10 0,0
27.06.2017 21:00:00 19,1 13,6 18,9 16 9 32 18 ONO 1003,3 10 0,0
27.06.2017 20:00:00 19,0 13,5 18,9 18 10 29 16 ONO 1003,8 10 0,0
27.06.2017 19:00:00 18,9 13,7 18,8 16 9 25 14 ONO 1004,5 10 0,0
27.06.2017 18:00:00 19,3 13,8 19,3 18 10 29 16 O 1005,5 10 0,0
27.06.2017 17:00:00 19,8 14,4 20,0 15 8 25 14 O 1006,6 10 0,0
27.06.2017 16:00:00 18,9 14,7 18,7 13 7 22 12 O 1007,1 10 0,2
27.06.2017 15:00:00 19,1 15,0 19,0 11 6 22 12 O 1007,8 10 0,3
27.06.2017 14:00:00 20,5 11,8 21,8 15 8 25 14 O 1008,1 10 0,0
27.06.2017 13:00:00 20,6 11,2 22,5 13 7 22 12 ONO 1008,6 10 0,0
27.06.2017 12:00:00 19,9 10,9 21,8 15 8 22 12 O 1009,2 10 0,0
27.06.2017 11:00:00 19,7 10,5 21,0 16 9 22 12 ONO 1009,8 10 0,0
27.06.2017 10:00:00 17,0 9,6 18,3 11 6 - - O 1010,5 10 -
27.06.2017 09:00:00 16,0 8,8 17,2 16 9 22 12 ONO 1010,4 10 0,0
27.06.2017 08:00:00 14,8 8,4 15,0 16 9 25 14 ONO 1010,4 10 0,0
27.06.2017 07:00:00 13,9 7,8 13,7 15 8 25 14 ONO 1011,0 10 0,0
27.06.2017 06:00:00 13,1 7,6 12,0 11 6 18 10 ONO 1011,5 10 0,0
27.06.2017 05:00:00 13,0 8,1 11,7 9 5 14 8 ONO 1011,9 10 0,0
27.06.2017 04:00:00 13,2 8,7 11,4 11 6 18 10 ONO 1012,4 10 0,0
27.06.2017 03:00:00 12,5 9,1 11,3 9 5 14 8 NO 1012,8 10 0,0
27.06.2017 02:00:00 12,7 9,2 12,2 11 6 14 8 NNO 1013,0 10 0,0
27.06.2017 01:00:00 13,1 9,1 12,0 9 5 14 8 NNO 1013,5 10 0,0
27.06.2017 00:00:00 13,7 9,6 12,8 11 6 18 10 NNO 1013,7 10 0,0
26.06.2017 23:00:00 15,6 10,1 14,9 13 7 18 10 NNO 1013,4 10 0,0
26.06.2017 22:00:00 17,3 9,9 16,6 16 9 25 14 N 1013,2 10 0,0
26.06.2017 21:00:00 18,9 8,5 18,9 15 8 22 12 N 1012,8 10 0,0
26.06.2017 20:00:00 20,3 8,2 20,7 16 9 25 14 N 1013,2 10 0,0
26.06.2017 19:00:00 21,1 7,5 23,0 18 10 29 16 N 1013,4 10 0,0
26.06.2017 18:00:00 21,6 6,1 24,9 11 6 25 14 NW 1013,5 10 0,0
26.06.2017 17:00:00 21,7 6,4 25,8 11 6 29 16 WNW 1013,8 10 0,0
26.06.2017 16:00:00 21,9 6,5 26,2 13 7 25 14 - 1014,0 10 0,0
26.06.2017 15:00:00 21,8 7,1 26,1 11 6 25 14 - 1014,2 10 0,0
26.06.2017 14:00:00 20,8 7,6 25,5 13 7 29 16 - 1014,3 10 0,0
26.06.2017 13:00:00 20,3 6,5 24,4 13 7 29 16 NNW 1014,4 10 0,0
26.06.2017 12:00:00 18,9 7,9 22,0 15 8 32 18 WNW 1014,2 10 0,0
26.06.2017 11:00:00 18,6 7,5 21,1 13 7 32 18 WNW 1014,3 10 0,0
26.06.2017 10:00:00 19,0 8,8 21,1 16 9 29 16 WNW 1014,1 10 0,0
26.06.2017 09:00:00 17,8 9,8 19,3 15 8 22 12 NW 1014,0 10 0,0
26.06.2017 08:00:00 16,0 9,9 15,8 13 7 22 12 NW 1013,7 10 0,0
26.06.2017 07:00:00 15,9 13,4 15,5 11 6 18 10 WNW 1012,9 10 0,0
26.06.2017 06:00:00 15,8 14,1 15,5 11 6 18 10 WNW 1012,5 10 0,0
26.06.2017 05:00:00 16,1 14,8 15,9 9 5 18 10 ZW 1012,0 10 0,0
26.06.2017 04:00:00 16,2 14,3 15,9 8 4 14 8 WZW 1012,0 10 0,0
26.06.2017 03:00:00 16,4 14,3 16,1 9 5 25 14 W 1012,2 10 0,0
26.06.2017 02:00:00 17,4 13,5 17,3 15 8 29 16 WZW 1012,0 10 0,0
26.06.2017 01:00:00 17,7 13,3 17,5 16 9 32 18 WZW 1011,9 10 0,0
26.06.2017 00:00:00 18,1 13,1 17,7 15 8 29 16 WZW 1012,0 10 0,0
25.06.2017 23:00:00 18,4 12,5 18,0 15 8 32 18 ZW 1011,9 10 0,0
25.06.2017 22:00:00 18,9 12,6 18,5 9 5 25 14 ZW 1011,8 10 0,0
25.06.2017 21:00:00 19,5 12,8 19,4 15 8 29 16 WZW 1011,8 10 0,0
25.06.2017 20:00:00 20,2 12,5 20,8 15 8 29 16 WZW 1011,8 10 0,0
25.06.2017 19:00:00 19,9 13,2 20,3 11 6 25 14 W 1012,1 10 0,0
25.06.2017 18:00:00 19,5 14,0 20,3 9 5 22 12 WNW 1012,1 10 0,0
25.06.2017 17:00:00 19,9 13,7 20,6 16 9 29 16 W 1012,4 10 0,0
25.06.2017 16:00:00 20,6 12,9 22,2 21 11 36 19 W 1012,6 10 0,0
25.06.2017 15:00:00 20,3 12,3 20,4 21 11 32 18 WZW 1012,7 10 0,0
25.06.2017 14:00:00 19,1 12,5 19,7 18 10 36 19 W 1012,9 10 0,0
25.06.2017 13:00:00 19,8 12,2 21,1 21 11 36 19 W 1012,4 10 0,0
25.06.2017 12:00:00 19,1 12,9 19,3 16 9 40 21 W 1012,1 10 0,0
25.06.2017 11:00:00 18,8 13,4 19,4 21 11 40 21 WZW 1011,7 10 0,0
25.06.2017 10:00:00 17,8 14,2 17,8 21 11 40 21 WZW 1011,4 10 0,0
25.06.2017 09:00:00 18,2 14,9 18,9 16 9 36 19 WZW 1011,1 10 0,0
25.06.2017 08:00:00 17,7 14,4 17,9 18 10 32 18 WZW 1010,9 2,7 0,0
25.06.2017 07:00:00 17,6 14,4 17,4 16 9 36 19 WZW 1010,8 10 0,0
25.06.2017 06:00:00 17,8 14,4 17,4 16 9 32 18 WZW 1010,7 10 0,0
25.06.2017 05:00:00 18,1 14,6 17,6 15 8 32 18 WZW 1010,7 10 0,0
25.06.2017 04:00:00 17,9 15,1 17,5 15 8 29 16 ZW 1011,0 10 0,0
25.06.2017 03:00:00 17,7 15,1 17,3 13 7 25 14 ZW 1011,3 10 0,0
25.06.2017 02:00:00 17,6 15,0 17,3 13 7 29 16 ZW 1011,8 10 0,0
25.06.2017 01:00:00 17,8 14,9 17,4 11 6 22 12 ZW 1012,2 10 0,0
25.06.2017 00:00:00 18,1 14,9 17,5 11 6 32 18 ZW 1012,8 10 0,0
24.06.2017 23:00:00 18,1 15,1 17,5 11 6 22 12 ZZW 1012,8 10 0,0
24.06.2017 22:00:00 17,8 15,6 17,4 8 4 18 10 ZW 1013,0 10 0,0
24.06.2017 21:00:00 17,7 16,0 17,4 11 6 22 12 ZZW 1013,1 10 0,0
24.06.2017 20:00:00 17,5 16,1 17,4 13 7 25 14 ZW 1013,6 10 0,0
24.06.2017 19:00:00 17,6 16,2 17,9 15 8 29 16 ZW 1013,8 10 0,5
24.06.2017 18:00:00 17,2 16,1 17,4 18 10 32 18 ZW 1014,5 3,3 0,4
24.06.2017 17:00:00 18,1 15,0 18,7 15 8 36 19 ZW 1014,7 10 0,0
24.06.2017 16:00:00 17,9 14,9 18,3 16 9 36 19 ZW 1015,0 10 0,0
24.06.2017 15:00:00 18,1 14,0 18,4 16 9 32 18 ZW 1015,1 10 0,0
24.06.2017 14:00:00 17,6 14,6 17,4 16 9 32 18 ZW 1015,2 10 0,0
24.06.2017 13:00:00 17,5 14,4 17,6 16 9 32 18 ZW 1015,0 9 0,0
24.06.2017 12:00:00 16,6 14,8 16,7 15 8 29 16 ZW 1015,1 4,2 0,0
24.06.2017 11:00:00 15,9 14,6 16,1 16 9 32 18 ZW 1015,0 3,4 0,1
24.06.2017 10:00:00 15,8 14,3 16,0 16 9 36 19 ZW 1015,1 4,0 0,0
24.06.2017 09:00:00 16,9 12,8 17,3 18 10 32 18 ZW 1014,9 10 0,0
24.06.2017 08:00:00 16,6 12,7 17,0 15 8 29 16 ZW 1014,7 10 0,0
24.06.2017 07:00:00 15,5 12,1 15,3 15 8 29 16 ZW 1014,7 10 0,0
24.06.2017 06:00:00 15,2 12,1 14,9 15 8 25 14 ZZW 1015,0 10 0,0
24.06.2017 05:00:00 15,6 12,2 15,2 13 7 25 14 ZW 1015,3 10 0,0
24.06.2017 04:00:00 15,3 11,8 14,6 13 7 25 14 ZW 1015,8 10 0,0
24.06.2017 03:00:00 15,7 11,4 15,0 9 5 29 16 ZW 1015,9 10 0,0
24.06.2017 02:00:00 16,3 11,4 15,7 13 7 25 14 ZW 1015,9 10 0,0
24.06.2017 01:00:00 16,7 11,4 16,0 11 6 25 14 ZW 1016,5 10 0,0
24.06.2017 00:00:00 17,4 11,3 16,6 15 8 36 19 WZW 1016,7 10 0,0
23.06.2017 23:00:00 18,1 11,2 17,2 13 7 29 16 WZW 1016,7 10 0,0
23.06.2017 22:00:00 19,4 10,9 18,8 16 9 32 18 WZW 1016,6 10 0,0
23.06.2017 21:00:00 20,8 11,7 20,6 18 10 36 19 W 1016,2 10 0,0
23.06.2017 20:00:00 22,6 12,1 23,3 22 12 36 19 W 1016,0 10 0,0
23.06.2017 19:00:00 23,3 13,1 24,9 18 10 32 18 W 1015,6 10 0,0
23.06.2017 18:00:00 24,0 13,9 26,3 21 11 36 19 W 1015,6 10 0,0
23.06.2017 17:00:00 24,8 12,4 27,4 18 10 36 19 W 1015,7 10 0,0
23.06.2017 16:00:00 24,3 12,0 26,7 21 11 43 23 WZW 1015,6 10 0,0
23.06.2017 15:00:00 23,8 12,8 26,7 18 10 36 19 W 1015,7 10 0,0
23.06.2017 14:00:00 23,5 13,6 25,3 16 9 32 18 WZW 1015,6 10 0,0
23.06.2017 13:00:00 23,2 14,1 26,6 18 10 32 18 WZW 1015,8 10 0,0
23.06.2017 12:00:00 22,3 14,7 24,0 18 10 32 18 WZW 1015,8 10 0,0
23.06.2017 11:00:00 20,9 15,2 22,2 16 9 29 16 WZW 1015,7 10 0,0
23.06.2017 10:00:00 19,9 15,8 20,8 15 8 29 16 WZW 1015,4 10 0,0
23.06.2017 09:00:00 19,6 16,1 20,4 13 7 25 14 ZW 1014,8 10 0,0
23.06.2017 08:00:00 18,6 16,0 18,8 11 6 18 10 ZW 1014,5 10 0,0
23.06.2017 07:00:00 17,8 15,6 17,9 9 5 18 10 WZW 1014,1 10 0,0
23.06.2017 06:00:00 17,5 15,3 16,9 11 6 22 12 WZW 1013,8 10 0,0
23.06.2017 05:00:00 17,7 15,1 17,2 8 4 14 8 ZW 1013,4 10 0,0
23.06.2017 04:00:00 18,1 15,3 17,7 8 4 11 6 ZW 1013,5 10 0,0
23.06.2017 03:00:00 18,6 15,5 18,3 5 3 14 8 ZW 1013,6 10 0,0
23.06.2017 02:00:00 18,3 15,4 18,1 4 2 11 6 - 1013,7 10 0,0
23.06.2017 01:00:00 18,6 15,3 18,3 8 4 25 14 W 1013,5 10 0,0
23.06.2017 00:00:00 19,1 15,1 18,9 16 9 32 18 W 1013,2 10 0,0
22.06.2017 23:00:00 19,2 15,0 19,0 22 12 40 21 W 1012,6 10 0,0
22.06.2017 22:00:00 19,6 14,6 19,1 22 12 40 21 W 1012,1 10 0,0
22.06.2017 21:00:00 20,6 14,8 20,4 22 12 47 25 W 1011,6 10 0,0
22.06.2017 20:00:00 21,9 15,6 21,8 18 10 40 21 W 1010,9 10 0,0
22.06.2017 19:00:00 22,3 17,6 22,8 26 14 40 21 W 1010,4 10 0,6
22.06.2017 18:00:00 23,3 16,3 23,4 24 13 50 27 WNW 1009,9 10 0,0
22.06.2017 17:00:00 27,4 14,6 28,0 26 14 50 27 W 1009,4 10 0,0
22.06.2017 16:00:00 31,2 13,4 33,2 37 20 50 27 WNW 1009,0 10 0,0
22.06.2017 15:00:00 32,8 15,2 35,3 24 13 40 21 W 1009,3 10 0,0
22.06.2017 14:00:00 33,4 14,6 36,5 21 11 40 21 W 1009,5 10 0,0
22.06.2017 13:00:00 32,2 15,2 35,8 18 10 36 19 W 1010,1 10 0,0
22.06.2017 12:00:00 30,9 14,5 33,3 21 11 32 18 WZW 1010,6 10 0,0
22.06.2017 11:00:00 29,7 14,0 31,7 16 9 29 16 WZW 1010,6 10 0,0
22.06.2017 10:00:00 28,8 17,2 30,9 15 8 29 16 WZW 1010,6 10 0,0
22.06.2017 09:00:00 27,2 16,9 28,4 15 8 25 14 ZW 1010,6 10 0,0
22.06.2017 08:00:00 25,4 16,1 26,2 9 5 14 8 ZZW 1010,8 10 0,0
22.06.2017 07:00:00 22,9 15,7 22,4 8 4 14 8 Z 1010,8 10 0,0
22.06.2017 06:00:00 21,7 15,1 20,4 8 4 11 6 ZZO 1010,9 10 0,0
22.06.2017 05:00:00 20,9 14,9 19,5 9 5 11 6 ZZO 1011,2 10 0,0

tt = temperatuur
td = dauwpunt
tt 5cm = temperatuur 5cm
ff = windsnelheid
fx = windstoten
dd = windrichting
ppp = luchtdruk
vv = zicht
rr = neerslag

Weerstations in de omgeving